Osoyoos, British Columbia

8:44 PM PDT on May 25, 2017 (GMT -0700)
Osoyoos

Weather History for CWYY - July, 2013

Change the Weather History Date:

Monday, July 22, 2013

  Actual Average (KOMK) Record (KOMK)
Temperature  
Mean Temperature 81 °F 74 °F  
Max Temperature 96 °F 90 °F 108 °F (2006)
Min Temperature 66 °F 59 °F 40 °F (1945)
Degree Days  
Heating Degree Days 0 0  
Month to date heating degree days 11  
Since 1 June heating degree days 80  
Since 1 July heating degree days 11  
Cooling Degree Days 16 10  
Month to date cooling degree days 163  
Year to date cooling degree days 270  
Since 1 June cooling degree days 247  
Growing Degree Days 31 (Base 50)    
Moisture  
Dew Point 47 °F    
Average Humidity 28    
Maximum Humidity 52    
Minimum Humidity 13    
Precipitation  
Precipitation 0.00 in 0.02 in 0.53 in (1955)
Month to date precipitation 0.61  
Year to date precipitation 8.59  
Sea Level Pressure  
Sea Level Pressure 29.78 in    
Wind  
Wind Speed 4 mph ()    
Max Wind Speed 7 mph    
Max Gust Speed -    
T = Trace of Precipitation, MM = Missing Value Source: Averaged Metar Reports

Daily Weather History Graph

Daily Weather History Graph

Search for Another Location

Airport or City:

Trip Planner

Search our weather history database for the weather conditions in past years. The results will help you decide how hot, cold, wet, or windy it might be!

Date:

Astronomy

Jul. 22, 2013 Rise Set
Actual Time 5:18 AM PDT 8:49 PM PDT
Civil Twilight 4:38 AM PDT 9:28 PM PDT
Nautical Twilight 3:45 AM PDT 10:21 PM PDT
Astronomical Twilight 2:32 AM PDT 11:32 PM PDT
Moon 8:29 PM PDT (7/22) 5:26 AM PDT (7/22)
Length of Visible Light 16h 50m
Length of Day
15h 31m
Full, 100% of the Moon is Illuminated
Jul 22
Full
Jul 29
Last Quarter
Aug 6
New
Aug 14
First Quarter
Aug 20
Full

Hourly Weather History & Observations

Time (PDT) Temp. Dew Point Humidity Pressure Visibility Wind Dir Wind Speed Gust Speed Precip Events Conditions
12:00 AM 82.9 °F 46.9 °F 28% 29.68 in - NW 6.9 mph - N/A   Unknown
1:00 AM 81.3 °F 45.1 °F 28% 29.70 in - WNW 5.8 mph - N/A   Unknown
2:00 AM 79.2 °F 45.0 °F 30% 29.71 in - WNW 4.6 mph - N/A   Unknown
3:00 AM 78.6 °F 44.8 °F 30% 29.72 in - NW 6.9 mph - N/A   Unknown
4:00 AM 75.6 °F 45.5 °F 34% 29.74 in - NNW 2.3 mph - N/A   Unknown
5:00 AM 72 °F 47 °F 29% 29.75 in - ENE 1.2 mph - -  
5:00 AM 71.8 °F 46.6 °F 41% 29.75 in - ENE 1.2 mph - N/A   Unknown
6:00 AM 67.5 °F 49.3 °F 52% 29.78 in - NE 1.2 mph - N/A   Unknown
7:00 AM 71.1 °F 48.7 °F 45% 29.80 in - ESE 1.2 mph - N/A   Unknown
8:00 AM 76.5 °F 50.9 °F 41% 29.81 in - NW 5.8 mph - N/A   Unknown
9:00 AM 80.2 °F 48.0 °F 32% 29.81 in - NW 6.9 mph - N/A   Unknown
10:00 AM 83.1 °F 49.3 °F 31% 29.81 in - NNW 6.9 mph - N/A   Unknown
11:00 AM 85 °F 51 °F 21% 29.81 in - NNW 6.9 mph - -  
11:00 AM 85.3 °F 51.1 °F 31% 29.81 in - NNW 6.9 mph - N/A   Unknown
12:00 PM 88.3 °F 47.8 °F 25% 29.81 in - WNW 5.8 mph - N/A   Unknown
1:00 PM 90.7 °F 47.5 °F 23% 29.80 in - West 4.6 mph - N/A   Unknown
2:00 PM 91.8 °F 50.4 °F 24% 29.79 in - NNW 5.8 mph - N/A   Unknown
3:00 PM 94.8 °F 42.8 °F 17% 29.78 in - WNW 3.5 mph - N/A   Unknown
4:00 PM 95.0 °F 44.8 °F 18% 29.77 in - NW 3.5 mph - N/A   Unknown
5:00 PM 94 °F 48 °F 13% 29.77 in - South 4.6 mph - -  
5:00 PM 94.1 °F 48.2 °F 21% 29.77 in - South 4.6 mph - N/A   Unknown
6:00 PM 93.0 °F 48.9 °F 22% 29.76 in - South 4.6 mph - N/A   Unknown
7:00 PM 92.5 °F 49.6 °F 23% 29.76 in - South 4.6 mph - N/A   Unknown
8:00 PM 90.7 °F 46.0 °F 21% 29.76 in - North 6.9 mph - N/A   Unknown
9:00 PM 84.4 °F 50.0 °F 30% 29.78 in - North 5.8 mph - N/A   Unknown
10:00 PM 86.9 °F 41.4 °F 20% 29.81 in - North 5.8 mph - N/A   Unknown
11:00 PM 83 °F 46 °F 18% 29.83 in - North 2.3 mph - -  
11:00 PM 82.9 °F 46.4 °F 28% 29.83 in - North 2.3 mph - N/A   Unknown